#timestamp,LO_Frequency,Hit,StdDev 
1558296015.4,286047004.0,N
1558296035.2,286047001.3,N
1558296055.1,286047005.6,Y
1558296056.0,286047005.6,P
1558296075.8,286047002.1,N
1558296095.6,286047002.7,N
1558296115.5,286047002.3,N
1558296135.3,286047002.7,N
1558296155.1,286047002.4,N
1558296175.9,286047000.4,N
1558296195.7,286047000.3,N
1558296215.6,286046999.9,N
1558296235.4,286047000.7,N
1558296255.2,286046999.2,N
1558296275.1,286046997.4,N
1558296276.0,286046997.4,N
1558296295.8,286046994.9,N
1558296315.6,286046993.8,N
1558296335.5,286046995.5,N
1558296355.3,286046995.6,N
1558296375.2,286046996.0,N
1558296395.9,286046996.3,N
1558296415.7,286046993.3,N
1558296435.6,286046990.1,N
1558296455.4,286046988.7,N
1558296475.2,286046992.7,N
1558296495.1,286046994.8,N
1558296496.0,286046994.8,N
1558296515.8,286046992.2,N
1558296535.7,286046991.2,N
1558296555.5,286046991.1,N
1558296575.3,286046989.7,N
1558296595.2,286046991.5,N
1558296615.9,286046992.7,N
1558296635.7,286046991.1,N
1558296655.6,286046991.0,N
1558296675.4,286046989.5,N
1558296695.3,286046989.6,N
1558296715.1,286046989.8,N
1558296716.0,286046989.8,N
1558296735.8,286046989.0,Y
1558296755.7,286046993.5,P
1558296775.5,286046995.5,P
1558296795.3,286046996.0,P
1558296815.2,286046993.5,Y
1558296835.0,286046998.8,P
1558296835.9,286046998.8,N
1558296855.8,286047000.8,N
1558296875.6,286047000.2,N
1558296895.4,286047002.8,N
1558296915.3,286047003.9,N
1558296935.1,286047001.3,N
1558296955.8,286047002.2,N
1558296975.7,286047002.0,N
1558296995.5,286047002.7,N
1558297015.4,286047006.0,N
1558297035.2,286047003.2,N
1558297055.0,286047001.5,N
1558297055.9,286047001.5,N
1558297075.8,286047003.8,N
1558297095.6,286047007.6,Y
1558297115.5,286047001.9,P
1558297135.3,286047002.6,P
1558297155.1,286047001.6,P
1558297175.9,286047000.6,N
1558297195.7,286047002.2,Y
1558297215.6,286047000.7,P
1558297235.4,286047000.7,N
1558297255.2,286047000.3,N
1558297275.1,286047002.1,Y
1558297276.0,286047002.1,P
1558297295.8,286047002.5,P
1558297315.6,286047002.0,N
1558297335.5,286046998.1,Y
1558297355.3,286046997.9,P
1558297375.2,286046996.6,N
1558297395.9,286046996.5,N
1558297415.7,286046999.2,N
1558297435.6,286046999.3,N
1558297455.4,286047000.5,N
1558297475.2,286047000.6,N
1558297495.1,286047002.2,N
1558297496.0,286047002.2,N
1558297515.8,286047002.4,N
1558297535.7,286046998.2,N
1558297555.5,286046996.7,N
1558297575.3,286046996.7,N
1558297595.2,286046996.9,N
1558297615.0,286046997.0,N
1558297615.9,286046997.0,N
1558297635.8,286046999.6,N
1558297655.6,286046998.5,N
1558297675.4,286047001.0,N
1558297695.3,286046999.4,N
1558297715.1,286046998.1,N
1558297735.8,286047000.9,N
1558297755.7,286047000.8,N
1558297775.5,286047002.4,N
1558297795.3,286047004.3,N
1558297815.2,286046998.4,N
1558297835.0,286046996.5,N
1558297835.9,286046996.5,N
1558297855.8,286046997.9,N
1558297875.6,286046995.0,N
1558297895.4,286046998.4,N
1558297915.3,286046999.2,N
1558297935.1,286046999.5,N
1558297955.9,286047000.5,N
1558297975.7,286046998.1,N
1558297995.5,286047001.2,N
1558298015.4,286046999.2,N
1558298035.2,286047000.6,N
1558298055.0,286046998.5,N
1558298055.9,286046998.5,N
1558298075.8,286046999.5,N
1558298095.6,286046998.9,N
1558298115.4,286046995.0,N
1558298135.3,286046997.9,N
1558298155.1,286046998.9,N
1558298175.9,286046999.6,N
1558298195.7,286046999.3,N
1558298215.5,286046997.2,N
1558298235.4,286046995.0,N
1558298255.2,286046997.2,N
1558298275.1,286046997.8,N
1558298276.0,286046997.8,N
1558298295.8,286046997.0,N
1558298315.6,286046997.2,N
1558298335.5,286046995.2,N
1558298355.3,286046998.0,N
1558298375.1,286046998.0,N
1558298395.9,286046995.5,N
1558298415.7,286046995.8,N
1558298435.6,286046996.3,N
1558298455.4,286046995.7,N
1558298475.2,286046997.4,N
1558298495.1,286046996.7,N
1558298496.0,286047011.9,Y
1558298515.8,286047000.4,P
1558298535.7,286047002.0,N
1558298555.5,286047000.3,N
1558298575.3,286046998.5,N
1558298595.2,286046999.1,N
1558298615.9,286046997.0,N
1558298635.7,286046998.2,N
1558298655.6,286046996.5,N
1558298675.4,286047000.7,N
1558298695.3,286047000.6,N
1558298715.1,286047001.5,N
1558298716.0,286047001.5,N
1558298735.8,286047002.8,N
1558298755.7,286047000.0,N
1558298775.5,286047000.0,N
1558298795.4,286047002.3,N
1558298815.2,286047002.3,N
1558298835.0,286047003.4,N
1558298835.9,286047003.4,N
1558298855.8,286047003.3,N
1558298875.6,286047003.7,N
1558298895.5,286047001.6,N
1558298915.5,286047002.5,N
1558298935.3,286047000.0,N
1558298955.2,286047002.7,N
1558298975.9,286047001.4,N
1558298995.7,286047002.4,N
1558299015.6,286047002.0,N
1558299035.4,286047001.7,N
1558299055.2,286047004.4,N
1558299075.1,286047002.9,N
1558299076.0,286047002.9,N
1558299095.8,286047002.2,N
1558299115.7,286047002.1,N
1558299135.5,286047002.8,N
1558299155.3,286047000.5,N
1558299175.2,286047000.0,N
1558299195.0,286047003.3,N
1558299195.9,286047003.3,N
1558299215.8,286047005.6,Y
1558299235.6,286047000.6,P
1558299255.4,286047000.0,N
1558299275.3,286047001.1,N
1558299295.1,286047001.2,N
1558299315.9,286047000.7,N
1558299335.7,286047000.1,N
1558299355.5,286047002.7,Y
1558299375.4,286047001.5,P
1558299395.2,286047005.3,P
1558299415.0,286047007.6,P
1558299415.9,286047007.6,N
1558299435.8,286047005.9,N
1558299455.6,286047004.1,N
1558299475.5,286047005.9,N
1558299525.3,286047000.0,E
1558299535.2,286046999.9,N
1558299555.1,286047001.0,P
1558299556.0,286047001.0,N
1558299575.8,286046998.6,N
1558299595.6,286046998.8,N
